Waupaca, WI

1:46 PM CST on December 09, 2016 (GMT -0600)
Waupaca Municipal

Weather History for KPCZ - January, 2014

Change the Weather History Date:

Monday, January 27, 2014

  Actual Average Record
Temperature  
Mean Temperature -4 °F -  
Max Temperature 3 °F 23 °F 51 °F (2006)
Min Temperature -11 °F 4 °F -25 °F (1950)
Degree Days  
Heating Degree Days 68    
Moisture  
Dew Point -20 °F    
Average Humidity 51    
Maximum Humidity 59    
Minimum Humidity 40    
Precipitation  
Precipitation 0.00 in - - ()
Sea Level Pressure  
Sea Level Pressure 30.14 in    
Wind  
Wind Speed 14 mph (West)    
Max Wind Speed 23 mph    
Max Gust Speed 29 mph    
Visibility 9 miles    
Events Snow    
Averages and records for this station are not official NWS values.
T = Trace of Precipitation, MM = Missing Value Source: NWS Daily Summary

Daily Weather History Graph

Daily Weather History Graph

Search for Another Location

Airport or City:

Trip Planner

Search our weather history database for the weather conditions in past years. The results will help you decide how hot, cold, wet, or windy it might be!

Date:

Astronomy

Jan. 27, 2014 Rise Set
Actual Time 7:19 AM CST 4:58 PM CST
Civil Twilight 6:48 AM CST 5:30 PM CST
Nautical Twilight 6:13 AM CST 6:05 PM CST
Astronomical Twilight 5:38 AM CST 6:39 PM CST
Moon 4:02 AM CST (1/27) 1:42 PM CST (1/27)
Length of Visible Light 10h 41m
Length of Day
9h 39m
Waning Crescent, 14% of the Moon is Illuminated
Jan 27
Waning Crescent
Jan 30
New
Feb 6
First Quarter
Feb 14
Full
Feb 22
Last Quarter

Hourly Weather History & Observations

Time (CST) Temp. Windchill Dew Point Humidity Pressure Visibility Wind Dir Wind Speed Gust Speed Precip Events Conditions
12:15 AM 3.9 °F -13.7 °F -8.1 °F 57% 29.78 in 7.0 mi WNW 13.8 mph 21.9 mph N/A   Clear
12:35 AM 3.2 °F -15.9 °F -8.9 °F 57% 29.79 in 7.0 mi WNW 16.1 mph 26.5 mph N/A   Clear
12:55 AM 3.0 °F -16.1 °F -9.6 °F 56% 29.81 in 5.0 mi WNW 16.1 mph 27.6 mph N/A   Haze
1:15 AM 2.3 °F -18.2 °F -10.5 °F 55% 29.82 in 7.0 mi WNW 18.4 mph 28.8 mph N/A   Clear
1:35 AM 1.9 °F -16.2 °F -10.7 °F 56% 29.84 in 10.0 mi WNW 13.8 mph 21.9 mph N/A   Clear
1:55 AM 1.4 °F -17.6 °F -12.3 °F 53% 29.86 in 10.0 mi WNW 15.0 mph 23.0 mph N/A   Clear
2:15 AM 0.9 °F -16.0 °F -11.2 °F 57% 29.88 in 10.0 mi WNW 11.5 mph 21.9 mph N/A   Clear
2:35 AM -0.0 °F -17.1 °F -11.7 °F 58% 29.89 in 10.0 mi West 11.5 mph 17.3 mph N/A   Clear
2:55 AM -0.4 °F -19.2 °F -12.6 °F 56% 29.91 in 10.0 mi West 13.8 mph 18.4 mph N/A   Clear
3:15 AM -0.9 °F -18.3 °F -13.2 °F 56% 29.93 in 10.0 mi WNW 11.5 mph 17.3 mph N/A   Clear
3:35 AM -1.3 °F -18.7 °F -13.4 °F 57% 29.94 in 10.0 mi West 11.5 mph 20.7 mph N/A   Clear
3:55 AM -1.7 °F -20.0 °F -13.0 °F 59% 29.95 in 10.0 mi WNW 12.7 mph 18.4 mph N/A   Clear
4:15 AM -2.0 °F -22.6 °F -14.1 °F 57% 29.96 in 10.0 mi WNW 16.1 mph 21.9 mph N/A   Clear
4:35 AM -2.6 °F -23.3 °F -15.2 °F 55% 29.98 in 10.0 mi West 16.1 mph 20.7 mph N/A   Clear
4:55 AM -3.1 °F -21.0 °F -15.9 °F 54% 29.98 in 10.0 mi West 11.5 mph 21.9 mph N/A   Clear
5:15 AM -3.8 °F -22.7 °F -16.2 °F 55% 30.00 in 10.0 mi West 12.7 mph 19.6 mph N/A   Clear
5:35 AM -4.0 °F -23.0 °F -16.6 °F 55% 30.01 in 10.0 mi West 12.7 mph 18.4 mph N/A   Clear
5:55 AM -4.7 °F -25.4 °F -16.2 °F 58% 30.02 in 10.0 mi West 15.0 mph 19.6 mph N/A   Clear
6:15 AM -5.4 °F -23.9 °F -16.8 °F 58% 30.04 in 10.0 mi West 11.5 mph 17.3 mph N/A   Scattered Clouds
6:35 AM -6.0 °F -23.6 °F -17.0 °F 59% 30.05 in 10.0 mi West 10.4 mph 19.6 mph N/A   Clear
6:55 AM -6.7 °F -27.9 °F -18.2 °F 57% 30.06 in 10.0 mi West 15.0 mph 19.6 mph N/A   Clear
7:15 AM -7.2 °F -28.6 °F -18.6 °F 58% 30.08 in 10.0 mi West 15.0 mph 19.6 mph N/A   Clear
7:35 AM -8.0 °F -28.0 °F -19.3 °F 58% 30.09 in 10.0 mi West 12.7 mph 19.6 mph N/A   Clear
7:55 AM -8.1 °F -28.2 °F -19.7 °F 57% 30.11 in 10.0 mi West 12.7 mph 18.4 mph N/A   Clear
8:15 AM -8.1 °F -28.2 °F -20.2 °F 56% 30.12 in 10.0 mi West 12.7 mph 21.9 mph N/A   Clear
8:35 AM -8.3 °F -28.4 °F -21.1 °F 54% 30.13 in 10.0 mi West 12.7 mph 18.4 mph N/A   Clear
8:55 AM -8.0 °F -28.8 °F -21.6 °F 51% 30.14 in 10.0 mi West 13.8 mph 19.6 mph N/A   Clear
9:15 AM -8.1 °F -29.0 °F -22.4 °F 50% 30.15 in 7.0 mi WNW 13.8 mph 21.9 mph N/A Snow Light Snow
9:35 AM -8.0 °F -31.6 °F -22.7 °F 49% 30.16 in 5.0 mi West 18.4 mph 26.5 mph N/A Snow Light Snow
9:55 AM -8.0 °F -31.0 °F -23.8 °F 46% 30.16 in 1.2 mi WNW 17.3 mph 23.0 mph N/A Snow Light Snow
10:15 AM -7.8 °F -26.8 °F -24.0 °F 45% 30.17 in 2.0 mi WNW 11.5 mph 26.5 mph N/A Snow Light Snow
10:35 AM -7.8 °F -30.0 °F -23.6 °F 46% 30.18 in 3.0 mi West 16.1 mph 25.3 mph N/A Snow Light Snow
10:55 AM -7.6 °F -30.5 °F -24.7 °F 43% 30.19 in 3.0 mi West 17.3 mph 26.5 mph N/A Snow Light Snow
11:15 AM -7.1 °F -30.4 °F -23.8 °F 44% 30.20 in 7.0 mi West 18.4 mph 23.0 mph N/A   Clear
11:35 AM -6.7 °F -27.9 °F -23.8 °F 43% 30.20 in 10.0 mi West 15.0 mph 20.7 mph N/A   Clear
11:55 AM -6.5 °F -28.4 °F -23.6 °F 43% 30.20 in 10.0 mi West 16.1 mph 21.9 mph N/A   Clear
12:15 PM -6.5 °F -30.3 °F -23.4 °F 44% 30.20 in 10.0 mi West 19.6 mph 24.2 mph N/A   Clear
12:35 PM -6.5 °F -31.9 °F -23.4 °F 44% 30.20 in 10.0 mi West 23.0 mph 28.8 mph N/A   Clear
12:55 PM -6.3 °F -26.7 °F -23.8 °F 43% 30.20 in 5.0 mi West 13.8 mph 24.2 mph N/A   Haze
1:15 PM -6.3 °F -28.9 °F -23.4 °F 43% 30.20 in 2.0 mi West 17.3 mph 27.6 mph N/A   Haze
1:35 PM -6.0 °F -27.7 °F -23.8 °F 42% 30.20 in 5.0 mi WNW 16.1 mph 24.2 mph N/A   Haze
1:55 PM -5.3 °F -26.8 °F -23.3 °F 42% 30.20 in 10.0 mi WNW 16.1 mph 23.0 mph N/A   Clear
2:15 PM -4.9 °F -26.3 °F -23.1 °F 41% 30.21 in 10.0 mi West 16.1 mph 23.0 mph N/A   Clear
2:35 PM -4.7 °F -24.7 °F -23.4 °F 40% 30.21 in 10.0 mi West 13.8 mph 21.9 mph N/A   Clear
2:55 PM -4.5 °F -23.6 °F -23.3 °F 40% 30.22 in 10.0 mi West 12.7 mph 20.7 mph N/A   Clear
3:15 PM -4.4 °F -23.4 °F -22.9 °F 41% 30.22 in 10.0 mi WNW 12.7 mph 18.4 mph N/A   Clear
3:35 PM -4.2 °F -21.4 °F -22.2 °F 42% 30.23 in 10.0 mi West 10.4 mph 19.6 mph N/A   Clear
3:55 PM -4.5 °F -25.9 °F -22.2 °F 43% 30.23 in 10.0 mi West 16.1 mph 21.9 mph N/A   Clear
4:15 PM -4.9 °F -24.9 °F -22.4 °F 43% 30.24 in 10.0 mi West 13.8 mph 21.9 mph N/A   Clear
4:35 PM -5.4 °F -26.3 °F -22.5 °F 44% 30.26 in 10.0 mi West 15.0 mph 18.4 mph N/A   Clear
4:55 PM -6.0 °F -24.6 °F -22.9 °F 44% 30.26 in 10.0 mi West 11.5 mph 23.0 mph N/A   Clear
5:15 PM -6.7 °F -26.4 °F -22.9 °F 45% 30.26 in 10.0 mi West 12.7 mph 21.9 mph N/A   Clear
5:35 PM -7.1 °F -25.0 °F -22.9 °F 46% 30.27 in 10.0 mi West 10.4 mph 18.4 mph N/A   Clear
5:55 PM -7.2 °F -27.1 °F -22.7 °F 47% 30.27 in 10.0 mi West 12.7 mph 19.6 mph N/A   Clear
6:15 PM -7.6 °F -27.5 °F -22.5 °F 48% 30.27 in 10.0 mi West 12.7 mph 19.6 mph N/A   Clear
6:35 PM -7.6 °F -28.3 °F -22.7 °F 48% 30.28 in 10.0 mi West 13.8 mph 20.7 mph N/A   Clear
6:55 PM -7.8 °F -28.6 °F -22.4 °F 49% 30.28 in 10.0 mi West 13.8 mph 18.4 mph N/A   Clear
7:15 PM -8.0 °F -28.0 °F -22.4 °F 50% 30.28 in 10.0 mi West 12.7 mph 18.4 mph N/A   Clear
7:35 PM -8.1 °F -30.5 °F -22.0 °F 51% 30.29 in 10.0 mi West 16.1 mph 21.9 mph N/A   Clear
7:55 PM -8.0 °F -28.8 °F -22.0 °F 50% 30.29 in 10.0 mi West 13.8 mph 20.7 mph N/A   Clear
8:15 PM -8.0 °F -28.0 °F -22.0 °F 50% 30.29 in 10.0 mi West 12.7 mph 20.7 mph N/A   Clear
8:35 PM -8.3 °F -28.4 °F -21.8 °F 52% 30.29 in 10.0 mi West 12.7 mph 17.3 mph N/A   Clear
8:55 PM -8.3 °F -28.4 °F -21.8 °F 52% 30.29 in 10.0 mi West 12.7 mph 23.0 mph N/A   Clear
9:15 PM -8.7 °F -28.9 °F -22.0 °F 52% 30.30 in 10.0 mi West 12.7 mph 18.4 mph N/A   Clear
9:35 PM -8.5 °F -27.8 °F -21.6 °F 53% 30.30 in 10.0 mi West 11.5 mph 19.6 mph N/A   Clear
9:55 PM -8.7 °F -28.9 °F -21.6 °F 53% 30.30 in 10.0 mi West 12.7 mph 20.7 mph N/A   Clear
10:15 PM -9.0 °F -30.2 °F -22.0 °F 53% 30.30 in 10.0 mi West 13.8 mph - N/A   Clear
10:35 PM -9.4 °F -29.8 °F -21.6 °F 55% 30.30 in 10.0 mi West 12.7 mph 19.6 mph N/A   Clear
10:55 PM -9.9 °F -29.6 °F -22.0 °F 55% 30.30 in 10.0 mi West 11.5 mph - N/A   Clear
11:15 PM -10.3 °F -30.9 °F -22.0 °F 56% 30.30 in 10.0 mi West 12.7 mph 19.6 mph N/A   Clear
11:35 PM -10.5 °F -28.1 °F -22.0 °F 57% 30.30 in 10.0 mi West 9.2 mph - N/A   Clear
11:55 PM -11.2 °F -27.8 °F -22.4 °F 58% 30.30 in 10.0 mi West 8.1 mph - N/A   Clear